Location: Monrovia
(34.7865°N, 86.7139°W)
Time: 22:02:52
(UTC+00:00)

IRS-1D - Pass Details

Date: 14 July 2020
Orbit: 739 x 817 km, 98.6° (Epoch: 08 August)

Event Time Altitude Azimuth Distance (km) Brightness Sun altitude
Rises 07:24:03 0° 21° (NNE) 3,181 7.9 -29.6°
Reaches altitude 10° 07:26:28 10° 29° (NNE) 2,252 6.9 -29.4°
Enters shadow 07:30:55 40° 93° (E) 1,077 4.3 -29.0°
